Tracking 20083 objects as of 12-Dec-2019
HD Live streaming from Space Station
objects crossing your sky now

COSMOS 2251 DEB

Track COSMOS 2251 DEB now!
10-day predictions


NORAD ID: 34458
Int'l Code: 1993-036TB
Perigee: 719.6 km
Apogee: 745.2 km
Inclination: 74.0 °
Period: 99.3 minutes
Semi major axis: 7103 km
RCS: 0.0199 m2 (small)
Launch date: June 16, 1993
Source: Commonwealth of Independent States (former USSR) (CIS)
Launch site: PLESETSK MISSILE AND SPACE COMPLEX (PKMTR)

Note: This is SATELLITE DEBRIS
aabbcc
Your satellite tracking list
Your tracking list is empty




NASA's NSSDC Master Catalog

Two Line Element Set (TLE):
1 34458U 93036TB  19345.23215199  .00000871  00000-0  23094-3 0  9996
2 34458  74.0284 254.6662 0018040 140.9628  14.5966 14.50112624568371
Source of the keplerian elements: AFSPC